FENGYUN 1C DEB

Satellite information

Favourite Embed

Satellite Type and Status

DEBRISIN ORBIT

Key statistics

Satellite FENGYUN 1C DEB at a glance.

Uptime

9661

Days in orbit

Revolutions

≈ 14.2

Per day

Orbit

SSO

Sun Synchronous Orbit

Inclination

98.6

Latest

Satellite identification and parameters

Extended collection of information and parameters for FENGYUN 1C DEB.

Object identification

Identified? True

Debris? True

Object name: FENGYUN 1C DEB

International designator: 1999-025CPM

Object number (NORAD): 31984

Object ID (CCSDS): 31984

Country: PEOPLES REPUBLIC OF CHINA (PRC)

Current information (Y/N): Y

RCS size: SMALL

Orbital parameters

Period: 101.214 minutes

Inclination: 98.56 deg

SMA: 7194.288 km

Apoapsis: 862.594 km

Periapsis: 769.712 km

RAAN: 265.1008 deg

Eccentricy: 0.00645524

Argument of periapsis: 124.1293 deg

Mean anomaly: 236.6031 deg

Mean motion: 14.22725252 rev/day

Mean motion (dot): 0.00000851 rev/day2

B* drag term: 0.00039035638 1/REarth

Two-line elements (TLE)

Creation date: Sept. 15, 2025, 10:34 a.m.

Reference frame: TEME

Reference center: EARTH

Epoch: Sept. 15, 2025, 6:41 a.m. UTC

TLE line 0: 0 FENGYUN 1C DEB

TLE line 1: 1 31984U 99025CPM 25258.27872177 .00000851 00000-0 39036-3 0 9991

TLE line 2: 2 31984 98.5600 265.1008 0064552 124.1293 236.6031 14.22725252931153

Live tracking on map

Real-time ground track for satellite FENGYUN 1C DEB.

In-orbit conjunctions

A list of the most updated potential collisions computed for object FENGYUN 1C DEB.

Target Orbit TCA Probability of collision Miss distance Type
FENGYUN 1C DEB SSO 2024-11-14 22:20:35 0.0001024737 878.0 (m) DEBRIS
CZ-6A DEB LEO 2024-11-11 07:17:00 0.0006536027 224.0 (m) DEBRIS

Associated space launch

Chinese polar orbiting meteorological satellite

FENGYUN 1C DEB was lifted into orbit during the mission ‘Long March 4B | Feng Yun 1C’, on board a Long March 4B space rocket.

The launch took place on May 10, 1999, 1:33 a.m. from Launch Complex 7.

For more information about the launch, click the button.

Launch to space Long March 4B | Feng Yun 1C
Long March 4B | Feng Yun 1C

Agency: N/A

Status: Launch Successful

Launch date: May 10, 1999, 1:33 a.m. UTC

Rocket: Long March 4B

Launch pad: Launch Complex 7

Location: Taiyuan Satellite Launch Center, People's Republic of China

...

Latest news about this satellite

There are no fresh news available about this satellite. Check back as we update our databases every day.


Newsletter sign-up

Weekly statistics, charts and insights to help you stay on top of the space industry.